Location: Montlouis
(46.5810°N, 0.5353°E)
Time: 11:22:15
(UTC+00:00)

Daily predictions for brighter satellites

Satellite Brightness Start Highest point End
(mag) Time Altitude Azimuth Time Altitude Azimuth Time Altitude Azimuth
ERS-1 Rocket 3.9 20:09:18 10° SE 20:13:46 34° ENE 20:18:16 10° N
CZ-4C R/B 3.7 20:10:10 10° NNE 20:13:56 43° E 20:17:49 10° S
USA 59 Rocket 1.0 20:10:57 10° NNW 20:14:32 38° NE 20:19:18 10° ESE
CZ-4 R/B 3.7 20:13:12 10° SW 20:16:13 22° W 20:19:18 10° NW
CSL-04 Rocket 4.2 20:11:32 10° S 20:16:44 59° WSW 20:21:58 10° NNW
Cosmos 1340 Rocket 4.1 20:14:01 10° SE 20:17:08 22° E 20:20:17 10° NE
Lacrosse 4 Rocket 3.0 20:13:56 10° N 20:17:14 23° NE 20:20:34 10° E
NOSS 2-1 (E) 4.4 20:13:59 10° NNW 20:17:36 40° NE 20:22:27 10° ESE
Cosmos 1766 Rocket 4.3 20:14:31 10° NNW 20:18:54 56° W 20:23:16 10° S
Meteor 1-27 Rocket 4.4 20:14:42 10° SSE 20:19:39 35° E 20:24:40 10° NNE
Resurs 01 Rocket 2.8 20:17:38 10° S 20:21:51 44° W 20:26:07 10° NNW
Cosmos 1452 Rocket 3.7 20:16:38 10° NNW 20:21:54 79° WSW 20:27:08 10° SSE
IRS-1C Rocket 4.4 20:18:21 10° SE 20:23:28 55° ENE 20:28:36 10° N
Okean O Rocket 2.5 20:20:03 10° S 20:24:20 50° W 20:28:40 10° NNW
USA 306 3.9 20:21:52 10° WNW 20:25:12 30° SW 20:28:37 10° SSE
ISS -1.4 20:26:13 10° W 20:28:14 15° SW 20:30:14 10° S
Terra 2.6 20:24:38 10° SE 20:28:55 36° ENE 20:33:15 10° N
IRS-1A Rocket 4.4 20:25:14 10° SSE 20:30:42 61° ENE 20:36:09 10° N
NOSS 2-1 (D) 4.0 20:27:02 10° NNW 20:30:46 52° NE 20:35:51 10° SE
Cosmos 1743 Rocket 4.2 20:30:39 10° N 20:34:50 40° ENE 20:38:55 11° SE
USA 32 4.5 20:30:01 10° SSW 20:35:12 67° W 20:40:26 10° N
Cosmos 2369 Rocket 4.0 20:32:30 10° NW 20:37:11 28° WSW 20:41:50 10° SSW
Cosmos 1603 3.8 20:33:13 10° SSW 20:38:53 84° WNW 20:44:39 10° NNE
SeaSat 1 3.8 20:34:31 10° S 20:38:58 34° WSW 20:43:27 10° NW
Okean 1 3.3 20:36:19 10° S 20:40:07 60° E 20:43:59 10° NNE
Cosmos 1408 Rocket 3.6 20:36:39 10° N 20:41:09 80° E 20:45:34 10° SSE
Centaur D AC-29 4.2 20:37:05 10° SSW 20:42:02 20° SE 20:55:05 10° ESE
ARGOS Delta rocket 3.9 20:39:05 10° SSE 20:43:54 63° ENE 20:48:29 10° N
DELTA 2 R/B (1) 4.5 20:39:44 10° SW 20:44:24 27° SSE 20:49:04 10° ESE
Cosmos 1151 Rocket 3.8 20:43:17 10° SSE 20:47:13 35° E 20:51:09 10° NNE
Cosmos 1975 4.2 20:47:59 10° NNE 20:51:14 24° ENE 20:53:47 14° ESE
MOS 1 Rocket 4.0 20:54:08 13° SE 20:58:37 52° ENE 21:03:51 10° N
Cosmos 1302 Rocket 4.0 20:53:40 10° NNW 20:58:54 89° W 21:03:31 13° SSE
USA 281 4.0 20:54:10 11° ESE 21:00:02 41° NE 21:06:07 10° NNW
Cosmos 220 Rocket 4.2 20:56:44 10° S 21:00:54 48° ESE 21:05:03 10° NNE
NOSS 3-3 (A) 4.1 20:56:57 10° S 21:02:01 43° ESE 21:07:47 10° NE
Meteor 1-19 Rocket 4.2 20:59:29 10° S 21:05:20 82° E 21:11:01 10° NNE
Cosmos 1536 3.6 21:02:20 10° NNW 21:06:08 48° W 21:09:55 10° SSW
Meteor 2-17 Rocket 4.4 21:01:27 10° S 21:07:27 70° E 21:13:28 10° NNE
NOSS 2-1 (C) 3.7 21:04:18 10° NW 21:08:13 80° SW 21:12:16 17° SSE
Cosmos 1340 2.3 21:06:38 10° NNW 21:10:03 86° WSW 21:12:29 17° S
Landsat 4 3.4 21:09:33 18° SSE 21:12:04 86° ENE 21:15:34 10° NNW
Molniya-1 4.2 21:09:13 10° SSW 21:12:42 59° ESE 21:21:37 10° NE
Okean-O 4.3 21:11:15 10° SSW 21:15:04 29° W 21:18:55 10° NW
USA 245 2.6 21:14:21 21° S 21:15:40 54° W 21:18:14 10° NNW
Nadezhda 4 Rocket 4.0 21:10:06 10° S 21:16:18 81° E 21:22:36 10° N
Meteor 2-10 4.3 21:10:57 10° NNW 21:16:22 69° W 21:21:14 12° S
Spot 2 Rocket 3.5 21:12:31 15° SSE 21:16:42 88° ENE 21:21:47 10° NNW
Cosmos 1500 Rocket 4.1 21:13:26 10° NNW 21:17:39 56° W 21:21:38 11° S
Cosmos 1626 3.0 21:17:57 22° ESE 21:18:54 26° E 21:21:39 10° NNE
SPOT 5 3.9 21:17:46 10° SSW 21:21:54 37° W 21:25:57 10° NNW
Cosmos 1726 4.4 21:22:07 10° NW 21:24:00 15° W 21:25:53 10° SW
Sich 1 3.6 21:20:57 10° NNW 21:25:15 56° W 21:28:59 13° S
BREEZE-M DEB (TANK) 3.4 21:13:37 10° SW 21:26:44 65° SSE 21:30:14 10° ENE
Cosmos 1697 Rocket 3.7 21:21:55 10° NNW 21:27:06 36° NE 21:31:08 15° ESE
Cosmos 1805 Rocket 4.2 21:25:01 10° NNW 21:29:18 52° W 21:33:05 13° SSW
Cosmos 1733 4.0 21:27:40 10° NNW 21:31:01 42° W 21:33:38 15° SSW
Cosmos 1633 Rocket 3.5 21:28:17 10° N 21:32:35 48° ENE 21:34:53 24° SE
IRIDIUM 104 4.5 21:28:22 10° N 21:33:33 58° E 21:36:47 22° SSE
Orbus 7S? 4.2 21:28:38 10° SSW 21:34:45 38° SE 21:38:00 10° ENE
NOSS 3-3 (C) 3.7 21:30:15 10° SSW 21:35:33 70° SE 21:41:50 10° NE
Cosmos 1980 Rocket 3.9 21:32:26 10° N 21:37:01 24° NE 21:41:33 10° E
Cosmos 1666 Rocket 3.5 21:34:15 10° N 21:38:33 68° E 21:40:51 26° SSE
Lacrosse 5 rocket 3.4 21:35:45 10° NW 21:39:16 24° NNE 21:42:42 10° ENE
SL-8 R/B 3.8 21:34:35 10° WNW 21:39:22 79° NNE 21:43:39 13° E
Ariane Rocket 3.4 21:36:07 17° S 21:40:02 61° WSW 21:45:06 10° NNW
IRIDIUM 114 4.3 21:37:28 10° N 21:42:42 70° E 21:45:54 24° SSE
Cosmos 44 Rocket 3.8 21:38:00 10° NNW 21:42:50 51° NE 21:45:49 21° ESE
Cosmos 1674 4.0 21:44:53 21° E 21:45:13 21° E 21:47:55 10° NE
Meteor 2-4 Rocket 3.8 21:46:32 14° S 21:51:37 90° ESE 21:57:36 10° N
IRIDIUM 103 4.3 21:46:36 10° N 21:51:53 84° E 21:55:03 24° S
ERS-1 Rocket 4.3 21:48:08 11° SSW 21:52:28 34° W 21:57:03 10° NNW
Cosmos 2026 Rocket 4.0 21:49:43 17° S 21:54:41 84° E 22:00:56 10° N
SPOT 3 Rocket 4.2 21:51:12 17° S 21:54:55 50° W 21:59:56 10° NNW
Lacrosse 4 Rocket 2.0 21:51:46 10° NW 21:55:42 46° WSW 21:57:32 27° S
Spot 1 4.1 21:53:46 10° N 21:57:55 75° WNW 22:01:02 18° SSW
Cosmos 1818 3.9 21:53:51 10° SW 21:59:16 67° NW 22:04:45 10° NNE
H-2A R/B 4.0 22:01:54 20° ESE 22:03:39 26° ENE 22:07:13 10° N
Cosmos 1607 4.1 21:58:33 15° SSW 22:03:55 58° ESE 22:10:17 10° NE
USA 59 Rocket 1.5 22:00:24 10° WNW 22:04:14 32° WSW 22:06:49 21° SSW
Cosmos 1805 4.4 22:01:51 10° NNW 22:05:14 34° W 22:07:13 20° SW
Terra 3.4 22:02:56 12° SSW 22:06:34 28° W 22:10:37 10° NW
Cosmos 1766 3.1 22:04:43 10° N 22:08:29 76° E 22:09:34 44° SSE
Cosmos 1833 Rocket 2.6 22:07:46 20° SSW 22:11:42 73° ESE 22:17:19 10° NNE
ALOS 2 4.5 22:12:16 15° E 22:14:14 20° ENE 22:17:25 10° NNE
Cosmos 1656 4.3 22:10:29 10° NW 22:15:42 46° WSW 22:18:33 25° SSW
Cosmos 1269 Rocket 4.4 22:12:55 10° SSW 22:18:02 64° WNW 22:23:18 10° NNE
Cosmos 1470 3.0 22:19:21 10° N 22:22:58 50° ENE 22:23:37 44° ESE
Landsat 5 4.5 22:21:05 10° N 22:24:37 38° WNW 22:27:17 16° SW
Cosmos 2082 Rocket 3.2 22:23:57 27° SE 22:25:06 29° ESE 22:29:56 10° NE
Cosmos 2251 Rocket 4.0 22:24:49 34° SE 22:26:18 42° ESE 22:31:16 10° NE
Cosmos 1975 4.4 22:23:43 10° NNW 22:27:05 28° W 22:28:58 19° SW
DELTA 2 R/B (1) 3.9 22:24:53 10° WSW 22:30:06 41° S 22:31:29 35° SE
Cosmos 1553 Rocket 3.9 22:26:05 10° N 22:32:12 87° W 22:35:15 32° S
GEOS 3 Rocket 3.5 22:33:25 10° NE 22:38:38 86° SE 22:42:27 18° SW
Cosmos 724 4.2 22:34:34 20° SSW 22:38:47 81° ESE 22:44:38 10° NE
Cosmos 1908 3.3 22:35:24 10° N 22:38:55 51° ENE 22:39:14 49° E
ARIANE 5 R/B 2.5 22:40:25 47° S 22:41:38 83° WSW 22:45:58 10° NNW
USA 281 3.8 22:41:02 26° SSW 22:44:26 47° WSW 22:50:47 10° NW
H-2A R/B 4.1 22:46:51 10° NE 22:49:27 15° E 22:49:42 15° E
CZ-2C R/B 3.8 22:47:37 10° N 22:52:04 69° WNW 22:53:46 36° SW
Cosmos 2285 Rocket 3.9 22:48:47 29° SSW 22:52:13 84° ESE 22:58:36 10° NNE
Cosmos 1626 4.3 22:50:44 12° WSW 22:52:26 17° WNW 22:54:37 10° NNW
Cosmos 1515 Rocket 4.1 22:54:04 33° SW 22:55:43 52° WNW 22:59:58 10° N
Cosmos 1140 Rocket 3.7 22:54:16 26° SW 22:57:14 67° WNW 23:02:27 10° NNE
Meteor 1-22 Rocket 4.3 22:53:50 10° N 22:59:10 62° ENE 23:01:09 38° SE
Spot 4 3.8 22:58:19 45° SSE 22:59:44 74° ENE 23:04:30 10° N
BREEZE-M DEB (TANK) 4.0 22:55:53 10° WSW 23:00:23 80° SSE 23:19:41 10° ENE
Cosmos 1707 2.7 23:00:27 57° WSW 23:00:56 65° W 23:04:33 10° N
Cosmos 1733 Rocket 4.3 22:58:13 10° N 23:02:06 31° ENE 23:03:12 27° E
Cosmos 1400 Rocket 3.6 23:02:59 36° E 23:03:04 36° E 23:06:44 10° NNE
Cosmos 2266 Rocket 3.9 23:02:10 37° S 23:04:51 83° E 23:11:12 10° N
PSLV R/B 4.2 23:01:42 10° N 23:05:42 60° WNW 23:06:48 42° SW
Cosmos 1300 3.7 23:03:14 10° N 23:06:27 31° ENE 23:06:40 30° E
Cosmos 1869 Rocket 3.5 23:04:45 10° N 23:09:09 86° W 23:10:01 57° S
NOSS 3-4 (A) 3.9 23:03:06 10° NW 23:10:00 69° SW 23:13:38 34° SSE
NOSS 3-4 (C) 3.9 23:03:11 10° NW 23:10:06 69° SW 23:13:46 34° SSE
Cosmos 1697 Rocket 3.4 23:05:52 10° NW 23:11:07 41° WSW 23:12:51 32° SSW
Cosmos 2322 Rocket 4.3 23:07:23 10° N 23:11:40 22° NE 23:15:58 10° E
Cosmos 1441 Rocket 2.8 23:08:28 10° NNW 23:12:03 85° W 23:12:05 84° WSW
Cosmos 883 Rocket 4.5 23:08:18 10° N 23:14:36 80° E 23:17:09 39° SSE
OPS 6432 4.5 23:11:50 10° NW 23:14:38 64° N 23:14:38 64° N
Meteor 1-15 Rocket 4.1 23:09:21 10° N 23:14:59 84° ENE 23:16:53 43° SSE
In-Cosmos 22 4.2 23:12:55 40° S 23:15:06 88° E 23:20:50 10° NNE
Lacrosse 5 rocket 1.4 23:14:00 10° NW 23:18:12 74° NE 23:19:04 52° ESE
Cosmos 1674 4.3 23:18:27 21° W 23:19:23 24° WNW 23:22:18 10° NNW
Cosmos 2228 Rocket 3.4 23:19:15 47° SE 23:19:54 51° E 23:24:18 10° NNE
Cosmos 1980 Rocket 2.2 23:15:52 10° NNW 23:21:34 71° WSW 23:23:22 44° S
SL-8 R/B 4.0 23:17:07 10° WNW 23:21:28 45° SW 23:21:28 45° SW
Cosmos 2333 Rocket 4.4 23:22:55 10° N 23:27:12 21° NE 23:31:28 10° E
Cosmos 1356 Rocket 4.1 23:27:09 39° ESE 23:27:21 39° E 23:31:14 10° NNE
Cosmos 1655 Rocket 4.0 23:26:16 39° S 23:28:53 88° E 23:35:20 10° N
Cosmos 540 Rocket 3.4 23:23:46 10° NNW 23:28:58 83° ENE 23:30:28 47° SSE
Cosmos 1953 4.2 23:28:16 10° NNE 23:31:09 20° ENE 23:32:08 18° E
Cosmos 1763 Rocket 3.5 23:26:08 10° NNW 23:31:26 71° WSW 23:32:48 48° S
BREEZE-M DEB (TANK) 3.5 23:30:28 10° WNW 23:37:31 13° ESE 23:38:27 10° ESE
Cosmos 468 Rocket 3.9 23:28:54 10° NNW 23:34:13 85° ENE 23:35:47 47° SSE
SL-14 R/B 3.1 23:36:11 71° ESE 23:36:16 72° E 23:40:04 10° NNE
GP-B 3.0 23:33:11 10° N 23:37:37 72° E 23:38:18 59° SSE
H-2A R/B 3.5 23:37:53 32° WSW 23:38:27 33° W 23:42:21 10° NNW
Cosmos 407 Rocket 4.4 23:36:25 23° WSW 23:39:22 45° WNW 23:44:24 10° NNE
Cosmos 1862 Rocket 3.6 23:42:08 57° SE 23:42:39 63° E 23:46:57 10° NNE
Cosmos 1455 4.0 23:40:08 10° NNE 23:42:42 19° ENE 23:43:13 18° E
CZ-3 Stage 3 4.1 23:26:12 10° WSW 23:43:07 31° SSW 23:43:40 30° SSW
Aureole 3 3.8 23:44:34 39° ENE 23:44:34 39° ENE 23:47:02 10° NNE
SJ 16-02 3.7 23:45:36 11° E 23:45:58 11° E 23:47:20 10° ENE
Cosmos 676 Rocket 4.0 23:44:45 49° S 23:46:11 76° ESE 23:51:31 10° NNE
Cosmos 1954 Rocket 3.9 23:45:26 46° SSW 23:47:04 89° WNW 23:52:25 10° NNE
Cosmos 2369 3.9 23:43:41 10° NW 23:49:16 56° WSW 23:50:47 43° SSW
ALOS 2 3.0 23:49:40 45° SW 23:50:14 48° W 23:54:30 10° NNW
Cosmos 1190 Rocket 4.3 23:51:05 34° SW 23:53:14 61° WNW 23:58:30 10° NNE
